Simultaneous Nadir Overpasses (SNOs) Predictions

Prediction of SNOs near US between AQUA and NPP Satellite Orbit:

Table of predicted SNOs near US for the next 10.0 days since TLE Epoch: 3/16/2012
Index Date (AQUA) Time (AQUA) AQUA Lat,Lon Date (NPP) Time (NPP) NPP Lat,Lon Distance(km) Time Diff (sec)
1 03/18/2012 06:31:04 44.20, -65.84 03/18/2012 06:30:26 44.59, -67.97 174.47 38
2 03/18/2012 08:08:21 49.93, -88.36 03/18/2012 08:10:14 50.47, -90.92 191.82 113
3 03/18/2012 09:47:15 49.89,-113.09 03/18/2012 09:51:43 50.52,-116.27 236.36 268
4 03/20/2012 19:06:46 49.95, -92.65 03/20/2012 19:00:32 49.65, -94.47 134.78 374
5 03/20/2012 20:45:40 49.98,-117.38 03/20/2012 20:42:00 49.55,-119.80 179.88 220
6 03/26/2012 07:20:44 47.84, -77.14 03/26/2012 07:20:08 48.21, -79.24 160.80 36
7 03/26/2012 08:59:03
